Regional Weather Roundup
Issued by NWS

Home | Current Version | Previous Version | Text Only | Print | Product List | Glossary On
Versions: 1 2 3 4 5 6 7 8 9 10 11 12 13 14 15 16 17 18 19 20 21 22 23 24 25 26 27 28 29 30 31 32 33 34 35 36 37 38 39 40 41 42 43 44 45 46 47 48 49 50
000
ASUS43 KLMK 020302
RWRKY
KENTUCKY REGIONAL WEATHER ROUNDUP
NATIONAL WEATHER SERVICE LOUISVILLE KY
1100 PM EDT MON JUN 01 2015

NOTE "FAIR" INDICATES FEW OR NO CLOUDS BELOW 12,000 FEET
WITH NO SIGNIFICANT WEATHER AND/OR OBSTRUCTIONS TO VISIBILITY.

KYZ001>023-026-027-061>063-070>075-020400-
WESTERN AND SOUTH CENTRAL KENTUCKY

CITY           SKY/WX    TMP DP  RH WIND       PRES   REMARKS
PADUCAH        CLOUDY    62  56  80 N6        30.11R
HENDERSON      CLOUDY    61  54  77 NE6       30.12R
OWENSBORO      CLOUDY    61  56  83 NE9       30.12S
HOPKINSVILLE   CLOUDY    61  58  92 NE7       30.10R
BOWLING GREEN  CLOUDY    61  58  90 NE7       30.10R FOG
GLASGOW        NOT AVBL
$$

KYZ024-025-028>034-038-045-046-053-020400-
NORTH CENTRAL KENTUCKY

CITY           SKY/WX    TMP DP  RH WIND       PRES   REMARKS
LOUISVILLE/SDF CLOUDY    59  52  77 NE9       30.13R
LOUISVILLE/LOU CLOUDY    58  52  80 NE5       30.14R
FORT KNOX      CLOUDY    57  53  86 N7        30.12R
$$

KYZ035>037-039>044-047>052-055>060-089>105-020400-
NORTHEAST KENTUCKY

CITY           SKY/WX    TMP DP  RH WIND       PRES   REMARKS
LEXINGTON      CLOUDY    55  51  86 NE14      30.13R
COVINGTON      CLOUDY    57  50  77 NE8       30.15R
FRANKFORT      CLOUDY    56  51  84 E8        30.13R
$$

KYZ054-064>069-076>088-106>120-020400-
SOUTHEAST KENTUCKY

CITY           SKY/WX    TMP DP  RH WIND       PRES   REMARKS
JACKSON        CLOUDY    56  55  97 CALM      30.11R FOG
LONDON         CLOUDY    59  55  87 N5        30.10R FOG
SOMERSET       NOT AVBL
MIDDLESBORO    NOT AVBL
MONTICELLO     CLOUDY    60  60 100 NE9       30.13R
$$




USA.gov is the U.S. government's official web portal to all federal, state and local government web resources and services.